User: anonymous   Login
Location: Newark
(40.3500°N, 15.2333°E)
Time: 09:12:50
(UTC+00:00)
Language:

NOAA 15 - Orbit

View from above orbital plane
View from above orbital plane
View from above satellite
View from above satellite

Ground track
Ground track

The orbit data is extracted from the following two-line orbital elements,

1 25338U 98030A   20222.90147409 +.00000043 +00000-0 +36736-4 0  9999
2 25338 098.7144 247.6731 0011559 106.1535 254.0917 14.25984330156591
Epoch (UTC): 09 August 2020 21:38:07
Eccentricity: 0.0011559
inclination: 98.7144°
perigee height: 797 km
apogee height: 813 km
right ascension of ascending node: 247.6731°
argument of perigee: 106.1535°
revolutions per day: 14.25984330
mean anomaly at epoch: 254.0917°
orbit number at epoch: 15659

The dashed part of the orbit path shows where the satellite is in the earth's shadow,  

DLR